Time,TemperatureF,DewpointF,PressureIn,WindDirection,WindDirectionDegrees,WindSpeedMPH,WindSpeedGustMPH,Humidity,HourlyPrecipIn,Conditions,Clouds,dailyrainin,SolarRadiationWatts/m^2,SoftwareType,DateUTC
2013-07-14 00:01:00,69.0,69.0,-100.00,North,349,2.0,3.0,99,0.01,,,0.11,0.000000,,2013-07-14 04:01:00,
2013-07-14 00:22:00,69.0,69.0,-100.00,North,349,2.0,3.0,99,0.01,,,0.11,0.000000,,2013-07-14 04:22:00,
2013-07-14 00:32:00,69.0,69.0,-100.00,North,349,2.0,3.0,99,0.01,,,0.11,0.000000,,2013-07-14 04:32:00,
2013-07-14 00:42:00,69.0,69.0,-100.00,North,349,2.0,3.0,99,0.01,,,0.11,0.000000,,2013-07-14 04:42:00,
2013-07-14 00:54:00,69.0,69.0,-100.00,North,349,2.0,3.0,99,0.01,,,0.11,0.000000,,2013-07-14 04:54:00,
2013-07-14 01:01:00,69.0,69.0,-100.00,NNE,26,3.0,7.0,99,0.00,,,0.11,0.000000,,2013-07-14 05:01:00,
2013-07-14 01:23:00,69.0,69.0,-100.00,NNE,26,3.0,7.0,99,0.00,,,0.11,0.000000,,2013-07-14 05:23:00,
2013-07-14 01:32:00,69.0,69.0,-100.00,NNE,26,3.0,7.0,99,0.00,,,0.11,0.000000,,2013-07-14 05:32:00,
2013-07-14 01:43:00,69.0,69.0,-100.00,NNE,26,3.0,7.0,99,0.00,,,0.11,0.000000,,2013-07-14 05:43:00,
2013-07-14 01:53:00,69.0,69.0,-100.00,NNE,26,3.0,7.0,99,0.00,,,0.11,0.000000,,2013-07-14 05:53:00,
2013-07-14 02:01:00,68.0,67.0,-100.00,NE,44,3.0,7.0,98,0.00,,,0.11,0.000000,,2013-07-14 06:01:00,
2013-07-14 02:32:00,68.0,67.0,-100.00,NE,44,3.0,7.0,98,0.00,,,0.11,0.000000,,2013-07-14 06:32:00,
2013-07-14 02:42:00,68.0,67.0,-100.00,NE,44,3.0,7.0,98,0.00,,,0.11,0.000000,,2013-07-14 06:42:00,
2013-07-14 02:53:00,68.0,67.0,-100.00,NE,44,3.0,7.0,98,0.00,,,0.11,0.000000,,2013-07-14 06:53:00,
2013-07-14 03:01:00,67.0,66.0,-100.00,North,11,2.0,10.0,98,0.00,,,0.11,0.000000,,2013-07-14 07:01:00,
2013-07-14 03:22:00,67.0,66.0,-100.00,North,11,2.0,10.0,98,0.00,,,0.11,0.000000,,2013-07-14 07:22:00,
2013-07-14 03:33:00,67.0,66.0,-100.00,North,11,2.0,10.0,98,0.00,,,0.11,0.000000,,2013-07-14 07:33:00,
2013-07-14 03:43:00,67.0,66.0,-100.00,North,11,2.0,10.0,98,0.00,,,0.11,0.000000,,2013-07-14 07:43:00,
2013-07-14 03:53:00,67.0,66.0,-100.00,North,11,2.0,10.0,98,0.00,,,0.11,0.000000,,2013-07-14 07:53:00,
2013-07-14 04:01:00,67.0,66.0,-100.00,North,3,2.0,5.0,98,0.00,,,0.11,0.000000,,2013-07-14 08:01:00,
2013-07-14 04:22:00,67.0,66.0,-100.00,North,3,2.0,5.0,98,0.00,,,0.11,0.000000,,2013-07-14 08:22:00,
2013-07-14 04:32:00,67.0,66.0,-100.00,North,3,2.0,5.0,98,0.00,,,0.11,0.000000,,2013-07-14 08:32:00,
2013-07-14 04:42:00,67.0,66.0,-100.00,North,3,2.0,5.0,98,0.00,,,0.11,0.000000,,2013-07-14 08:42:00,
2013-07-14 04:53:00,67.0,66.0,-100.00,North,3,2.0,5.0,98,0.00,,,0.11,0.000000,,2013-07-14 08:53:00,
2013-07-14 05:01:00,67.0,66.0,-100.00,NNE,16,2.0,4.0,95,0.00,,,0.11,0.000000,,2013-07-14 09:01:00,
2013-07-14 05:22:00,67.0,66.0,-100.00,NNE,16,2.0,4.0,95,0.00,,,0.11,0.000000,,2013-07-14 09:22:00,
2013-07-14 05:32:00,67.0,66.0,-100.00,NNE,16,2.0,4.0,95,0.00,,,0.11,0.000000,,2013-07-14 09:32:00,
2013-07-14 05:42:00,67.0,66.0,-100.00,NNE,16,2.0,4.0,95,0.00,,,0.11,0.000000,,2013-07-14 09:42:00,
2013-07-14 05:53:00,67.0,66.0,-100.00,NNE,16,2.0,4.0,95,0.00,,,0.11,0.000000,,2013-07-14 09:53:00,
2013-07-14 06:01:00,67.0,66.0,-100.00,NNE,22,2.0,4.0,96,0.00,,,0.11,0.000000,,2013-07-14 10:01:00,
2013-07-14 06:22:00,67.0,66.0,-100.00,NNE,22,2.0,4.0,96,0.00,,,0.11,0.000000,,2013-07-14 10:22:00,
2013-07-14 06:32:00,67.0,66.0,-100.00,NNE,22,2.0,4.0,96,0.00,,,0.11,0.000000,,2013-07-14 10:32:00,
2013-07-14 06:42:00,67.0,66.0,-100.00,NNE,22,2.0,4.0,96,0.00,,,0.11,0.000000,,2013-07-14 10:42:00,
2013-07-14 06:53:00,67.0,66.0,-100.00,NNE,22,2.0,4.0,96,0.00,,,0.11,0.000000,,2013-07-14 10:53:00,
2013-07-14 07:01:00,67.0,66.0,-100.00,North,3,2.0,4.0,96,0.00,,,0.11,13.000000,,2013-07-14 11:01:00,
2013-07-14 07:32:00,67.0,66.0,-100.00,North,3,2.0,4.0,96,0.00,,,0.11,13.000000,,2013-07-14 11:32:00,
2013-07-14 07:43:00,67.0,66.0,-100.00,North,3,2.0,4.0,96,0.00,,,0.11,13.000000,,2013-07-14 11:43:00,
2013-07-14 07:53:00,67.0,66.0,-100.00,North,3,2.0,4.0,96,0.00,,,0.11,13.000000,,2013-07-14 11:53:00,
2013-07-14 08:01:00,68.0,67.0,-100.00,NNE,24,1.0,4.0,97,0.00,,,0.11,67.000000,,2013-07-14 12:01:00,
2013-07-14 08:33:00,68.0,67.0,-100.00,NNE,24,1.0,4.0,97,0.00,,,0.11,67.000000,,2013-07-14 12:33:00,
2013-07-14 08:43:00,68.0,67.0,-100.00,NNE,24,1.0,4.0,97,0.00,,,0.11,67.000000,,2013-07-14 12:43:00,
2013-07-14 08:53:00,68.0,67.0,-100.00,NNE,24,1.0,4.0,97,0.00,,,0.11,67.000000,,2013-07-14 12:53:00,
2013-07-14 09:01:00,71.0,68.0,-100.00,NNW,339,2.0,4.0,90,0.00,,,0.11,201.000000,,2013-07-14 13:01:00,
2013-07-14 09:32:00,71.0,68.0,-100.00,NNW,339,2.0,4.0,90,0.00,,,0.11,201.000000,,2013-07-14 13:32:00,
2013-07-14 09:42:00,71.0,68.0,-100.00,NNW,339,2.0,4.0,90,0.00,,,0.11,201.000000,,2013-07-14 13:42:00,
2013-07-14 09:53:00,71.0,68.0,-100.00,NNW,339,2.0,4.0,90,0.00,,,0.11,201.000000,,2013-07-14 13:53:00,
2013-07-14 10:01:00,72.0,66.0,-100.00,WNW,285,1.0,4.0,82,0.00,,,0.11,263.000000,,2013-07-14 14:01:00,
2013-07-14 10:23:00,72.0,66.0,-100.00,WNW,285,1.0,4.0,82,0.00,,,0.11,263.000000,,2013-07-14 14:23:00,
2013-07-14 10:33:00,72.0,66.0,-100.00,WNW,285,1.0,4.0,82,0.00,,,0.11,263.000000,,2013-07-14 14:33:00,
2013-07-14 10:43:00,72.0,66.0,-100.00,WNW,285,1.0,4.0,82,0.00,,,0.11,263.000000,,2013-07-14 14:43:00,
2013-07-14 10:53:00,72.0,66.0,-100.00,WNW,285,1.0,4.0,82,0.00,,,0.11,263.000000,,2013-07-14 14:53:00,
2013-07-14 11:01:00,76.0,71.0,-100.00,SW,233,2.0,4.0,84,0.00,,,0.11,327.000000,,2013-07-14 15:01:00,
2013-07-14 11:22:00,76.0,71.0,-100.00,SW,233,2.0,4.0,84,0.00,,,0.11,327.000000,,2013-07-14 15:22:00,
2013-07-14 11:32:00,76.0,71.0,-100.00,SW,233,2.0,4.0,84,0.00,,,0.11,327.000000,,2013-07-14 15:32:00,
2013-07-14 11:42:00,76.0,71.0,-100.00,SW,233,2.0,4.0,84,0.00,,,0.11,327.000000,,2013-07-14 15:42:00,
2013-07-14 11:53:00,76.0,71.0,-100.00,SW,233,2.0,4.0,84,0.00,,,0.11,327.000000,,2013-07-14 15:53:00,
2013-07-14 12:01:00,79.0,68.0,-100.00,SSW,200,3.0,7.0,69,0.00,,,0.11,864.000000,,2013-07-14 16:01:00,
2013-07-14 12:22:00,79.0,68.0,-100.00,SSW,200,3.0,7.0,69,0.00,,,0.11,864.000000,,2013-07-14 16:22:00,
2013-07-14 12:32:00,79.0,68.0,-100.00,SSW,200,3.0,7.0,69,0.00,,,0.11,864.000000,,2013-07-14 16:32:00,
2013-07-14 12:43:00,79.0,68.0,-100.00,SSW,200,3.0,7.0,69,0.00,,,0.11,864.000000,,2013-07-14 16:43:00,
2013-07-14 12:54:00,79.0,68.0,-100.00,SSW,200,3.0,7.0,69,0.00,,,0.11,864.000000,,2013-07-14 16:54:00,
2013-07-14 13:01:00,77.0,66.0,-100.00,South,174,2.0,7.0,70,0.00,,,0.11,656.000000,,2013-07-14 17:01:00,
2013-07-14 13:22:00,77.0,66.0,-100.00,South,174,2.0,7.0,70,0.00,,,0.11,656.000000,,2013-07-14 17:22:00,
2013-07-14 13:32:00,77.0,66.0,-100.00,South,174,2.0,7.0,70,0.00,,,0.11,656.000000,,2013-07-14 17:32:00,
2013-07-14 13:43:00,77.0,66.0,-100.00,South,174,2.0,7.0,70,0.00,,,0.11,656.000000,,2013-07-14 17:43:00,
2013-07-14 13:53:00,77.0,66.0,-100.00,South,174,2.0,7.0,70,0.00,,,0.11,656.000000,,2013-07-14 17:53:00,
2013-07-14 14:01:00,81.0,71.0,-100.00,South,188,3.0,6.0,71,0.00,,,0.11,750.000000,,2013-07-14 18:01:00,
2013-07-14 14:22:00,81.0,71.0,-100.00,South,188,3.0,6.0,71,0.00,,,0.11,750.000000,,2013-07-14 18:22:00,
2013-07-14 14:32:00,81.0,71.0,-100.00,South,188,3.0,6.0,71,0.00,,,0.11,750.000000,,2013-07-14 18:32:00,
2013-07-14 14:42:00,81.0,71.0,-100.00,South,188,3.0,6.0,71,0.00,,,0.11,750.000000,,2013-07-14 18:42:00,
2013-07-14 14:52:00,81.0,71.0,-100.00,South,188,3.0,6.0,71,0.00,,,0.11,750.000000,,2013-07-14 18:52:00,
2013-07-14 15:01:00,82.0,69.0,-100.00,South,187,3.0,8.0,66,0.00,,,0.11,815.000000,,2013-07-14 19:01:00,
2013-07-14 15:22:00,82.0,69.0,-100.00,South,187,3.0,8.0,66,0.00,,,0.11,815.000000,,2013-07-14 19:22:00,
2013-07-14 15:32:00,82.0,69.0,-100.00,South,187,3.0,8.0,66,0.00,,,0.11,815.000000,,2013-07-14 19:32:00,
2013-07-14 15:43:00,82.0,69.0,-100.00,South,187,3.0,8.0,66,0.00,,,0.11,815.000000,,2013-07-14 19:43:00,
2013-07-14 15:53:00,82.0,69.0,-100.00,South,187,3.0,8.0,66,0.00,,,0.11,815.000000,,2013-07-14 19:53:00,
2013-07-14 16:01:00,85.0,71.0,-100.00,SSW,196,3.0,7.0,63,0.00,,,0.11,936.000000,,2013-07-14 20:01:00,
2013-07-14 16:22:00,85.0,71.0,-100.00,SSW,196,3.0,7.0,63,0.00,,,0.11,936.000000,,2013-07-14 20:22:00,
2013-07-14 16:32:00,85.0,71.0,-100.00,SSW,196,3.0,7.0,63,0.00,,,0.11,936.000000,,2013-07-14 20:32:00,
2013-07-14 16:43:00,85.0,71.0,-100.00,SSW,196,3.0,7.0,63,0.00,,,0.11,936.000000,,2013-07-14 20:43:00,
2013-07-14 16:53:00,85.0,71.0,-100.00,SSW,196,3.0,7.0,63,0.00,,,0.11,936.000000,,2013-07-14 20:53:00,
2013-07-14 17:01:00,81.0,67.0,-100.00,SSW,192,3.0,7.0,62,0.00,,,0.11,687.000000,,2013-07-14 21:01:00,
2013-07-14 17:22:00,81.0,67.0,-100.00,SSW,192,3.0,7.0,62,0.00,,,0.11,687.000000,,2013-07-14 21:22:00,
2013-07-14 17:32:00,81.0,67.0,-100.00,SSW,192,3.0,7.0,62,0.00,,,0.11,687.000000,,2013-07-14 21:32:00,
2013-07-14 17:43:00,81.0,67.0,-100.00,SSW,192,3.0,7.0,62,0.00,,,0.11,687.000000,,2013-07-14 21:43:00,
2013-07-14 17:53:00,81.0,67.0,-100.00,SSW,192,3.0,7.0,62,0.00,,,0.11,687.000000,,2013-07-14 21:53:00,
2013-07-14 18:01:00,83.0,71.0,-100.00,SSW,207,3.0,7.0,67,0.00,,,0.11,541.000000,,2013-07-14 22:01:00,
2013-07-14 18:22:00,83.0,71.0,-100.00,SSW,207,3.0,7.0,67,0.00,,,0.11,541.000000,,2013-07-14 22:22:00,
2013-07-14 18:32:00,83.0,71.0,-100.00,SSW,207,3.0,7.0,67,0.00,,,0.11,541.000000,,2013-07-14 22:32:00,
2013-07-14 18:42:00,83.0,71.0,-100.00,SSW,207,3.0,7.0,67,0.00,,,0.11,541.000000,,2013-07-14 22:42:00,
2013-07-14 18:53:00,83.0,71.0,-100.00,SSW,207,3.0,7.0,67,0.00,,,0.11,541.000000,,2013-07-14 22:53:00,
2013-07-14 19:01:00,83.0,66.0,-100.00,SW,227,1.0,5.0,56,0.00,,,0.11,297.000000,,2013-07-14 23:01:00,
2013-07-14 19:32:00,83.0,66.0,-100.00,SW,227,1.0,5.0,56,0.00,,,0.11,297.000000,,2013-07-14 23:32:00,
2013-07-14 19:42:00,83.0,66.0,-100.00,SW,227,1.0,5.0,56,0.00,,,0.11,297.000000,,2013-07-14 23:42:00,
2013-07-14 19:53:00,83.0,66.0,-100.00,SW,227,1.0,5.0,56,0.00,,,0.11,297.000000,,2013-07-14 23:53:00,
2013-07-14 20:01:00,74.0,67.0,-100.00,NNW,331,2.0,2.0,78,0.00,,,-99.99,73.000000,,2013-07-15 00:01:00,
2013-07-14 20:22:00,74.0,67.0,-100.00,NNW,331,2.0,2.0,78,0.00,,,-99.99,73.000000,,2013-07-15 00:22:00,
2013-07-14 20:32:00,74.0,67.0,-100.00,NNW,331,2.0,2.0,78,0.00,,,-99.99,73.000000,,2013-07-15 00:32:00,
2013-07-14 20:43:00,74.0,67.0,-100.00,NNW,331,2.0,2.0,78,0.00,,,-99.99,73.000000,,2013-07-15 00:43:00,
2013-07-14 20:53:00,74.0,67.0,-100.00,NNW,331,2.0,2.0,78,0.00,,,-99.99,73.000000,,2013-07-15 00:53:00,
2013-07-14 21:01:00,72.0,66.0,-100.00,North,359,1.0,2.0,82,0.00,,,0.10,12.000000,,2013-07-15 01:01:00,
2013-07-14 21:22:00,72.0,66.0,-100.00,North,359,1.0,2.0,82,0.00,,,0.10,12.000000,,2013-07-15 01:22:00,
2013-07-14 21:32:00,72.0,66.0,-100.00,North,359,1.0,2.0,82,0.00,,,0.10,12.000000,,2013-07-15 01:32:00,
2013-07-14 21:43:00,72.0,66.0,-100.00,North,359,1.0,2.0,82,0.00,,,0.10,12.000000,,2013-07-15 01:43:00,
2013-07-14 21:53:00,72.0,66.0,-100.00,North,359,1.0,2.0,82,0.00,,,0.10,12.000000,,2013-07-15 01:53:00,
2013-07-14 22:01:00,71.0,66.0,-100.00,South,178,1.0,2.0,83,0.00,,,0.10,0.000000,,2013-07-15 02:01:00,
2013-07-14 22:22:00,71.0,66.0,-100.00,South,178,1.0,2.0,83,0.00,,,0.10,0.000000,,2013-07-15 02:22:00,
2013-07-14 22:32:00,71.0,66.0,-100.00,South,178,1.0,2.0,83,0.00,,,0.10,0.000000,,2013-07-15 02:32:00,
2013-07-14 22:42:00,71.0,66.0,-100.00,South,178,1.0,2.0,83,0.00,,,0.10,0.000000,,2013-07-15 02:42:00,
2013-07-14 22:53:00,71.0,66.0,-100.00,South,178,1.0,2.0,83,0.00,,,0.10,0.000000,,2013-07-15 02:53:00,
2013-07-14 23:01:00,72.0,67.0,-100.00,NNE,28,0.0,2.0,84,0.00,,,0.01,0.000000,,2013-07-15 03:01:00,
2013-07-14 23:22:00,72.0,67.0,-100.00,NNE,28,0.0,2.0,84,0.00,,,0.01,0.000000,,2013-07-15 03:22:00,
2013-07-14 23:32:00,72.0,67.0,-100.00,NNE,28,0.0,2.0,84,0.00,,,0.01,0.000000,,2013-07-15 03:32:00,
2013-07-14 23:43:00,72.0,67.0,-100.00,NNE,28,0.0,2.0,84,0.00,,,0.01,0.000000,,2013-07-15 03:43:00,
2013-07-14 23:53:00,72.0,67.0,-100.00,NNE,28,0.0,2.0,84,0.00,,,0.01,0.000000,,2013-07-15 03:53:00,